TimeCST,TemperatureF,Dew PointF,Humidity,Sea Level PressureIn,VisibilityMPH,Wind Direction,Wind SpeedMPH,Gust SpeedMPH,PrecipitationIn,Events,Conditions,WindDirDegrees,DateUTC
12:15 AM,26.6,26.6,100,29.31,0.2,North,31.1,51.8,N/A,Rain,Freezing Rain,350,2014-01-16 06:15:00
12:35 AM,21.2,19.4,93,29.35,0.2,North,43.7,54.1,N/A,Snow,Heavy Snow,350,2014-01-16 06:35:00
12:55 AM,19.4,17.6,93,29.36,1.0,North,38.0,50.6,N/A,Rain,Freezing Rain,350,2014-01-16 06:55:00
1:15 AM,19.4,15.8,86,29.39,1.2,North,34.5,44.9,N/A,Snow,Light Snow,350,2014-01-16 07:15:00
1:35 AM,15.8,14.0,93,29.40,0.2,North,44.9,57.5,N/A,Snow,Heavy Snow,350,2014-01-16 07:35:00
1:55 AM,14.0,12.2,93,29.41,0.2,North,44.9,57.5,N/A,Snow,Heavy Snow,350,2014-01-16 07:55:00
2:15 AM,14.0,10.4,86,29.43,0.5,North,42.6,52.9,N/A,Snow,Snow,350,2014-01-16 08:15:00
2:35 AM,14.0,8.6,79,29.46,1.5,North,36.8,48.3,N/A,Snow,Light Snow,350,2014-01-16 08:35:00
2:55 AM,12.2,8.6,85,29.49,1.8,North,40.3,50.6,N/A,Snow,Light Snow,350,2014-01-16 08:55:00
3:15 AM,10.4,6.8,85,29.52,2.0,North,32.2,41.4,N/A,Snow,Light Snow,350,2014-01-16 09:15:00
3:35 AM,10.4,6.8,85,29.52,2.0,North,28.8,40.3,N/A,Snow,Light Snow,350,2014-01-16 09:35:00
3:55 AM,10.4,6.8,85,29.54,7.0,North,29.9,36.8,N/A,Snow,Light Snow,350,2014-01-16 09:55:00
4:15 AM,10.4,5.0,79,29.54,4.0,North,31.1,39.1,N/A,Snow,Light Snow,350,2014-01-16 10:15:00
4:35 AM,8.6,3.2,79,29.57,7.0,NNW,25.3,39.1,N/A,Rain,Freezing Rain,340,2014-01-16 10:35:00
4:55 AM,8.6,1.4,73,29.57,7.0,NNW,34.5,41.4,N/A,Rain,Freezing Rain,340,2014-01-16 10:55:00
5:15 AM,8.6,1.4,73,29.57,3.0,North,39.1,51.8,N/A,Rain,Freezing Rain,350,2014-01-16 11:15:00
5:35 AM,6.8,-0.4,72,29.61,6.0,NNW,34.5,46.0,N/A,Rain,Freezing Rain,340,2014-01-16 11:35:00
5:55 AM,5.0,-0.4,78,29.63,1.5,North,31.1,41.4,N/A,Rain,Freezing Rain,350,2014-01-16 11:55:00
6:15 AM,5.0,-0.4,78,29.65,3.0,North,28.8,41.4,N/A,Snow,Light Snow,350,2014-01-16 12:15:00
6:35 AM,5.0,-2.2,72,29.66,3.0,NNW,34.5,47.2,N/A,Rain,Freezing Rain,340,2014-01-16 12:35:00
6:55 AM,3.2,-2.2,78,29.69,5.0,NNW,27.6,38.0,N/A,Rain,Freezing Rain,340,2014-01-16 12:55:00
7:15 AM,3.2,-2.2,78,29.69,3.0,NNW,34.5,43.7,N/A,Rain,Freezing Rain,340,2014-01-16 13:15:00
7:35 AM,1.4,-2.2,85,29.70,2.0,NNW,38.0,51.8,N/A,Snow,Light Snow,340,2014-01-16 13:35:00
7:55 AM,1.4,-2.2,85,29.71,3.0,NNW,36.8,48.3,N/A,Rain,Freezing Rain,340,2014-01-16 13:55:00
8:15 AM,1.4,-2.2,85,29.73,2.0,NNW,34.5,49.5,N/A,Rain,Freezing Rain,340,2014-01-16 14:15:00
8:35 AM,1.4,-2.2,85,29.75,1.2,NNW,32.2,40.3,N/A,Snow,Light Snow,340,2014-01-16 14:35:00
8:55 AM,1.4,-2.2,85,29.76,0.5,NNW,40.3,51.8,N/A,Rain,Freezing Rain,340,2014-01-16 14:55:00
9:15 AM,1.4,-2.2,85,29.80,1.2,NNW,35.7,50.6,N/A,Rain,Freezing Rain,340,2014-01-16 15:15:00
9:35 AM,1.4,-2.2,85,29.81,0.8,NNW,33.4,46.0,N/A,Rain,Freezing Rain,340,2014-01-16 15:35:00
9:55 AM,1.4,-2.2,85,29.83,1.5,NNW,38.0,47.2,N/A,Rain,Freezing Rain,340,2014-01-16 15:55:00
10:15 AM,1.4,-2.2,85,29.85,0.5,NNW,29.9,47.2,N/A,Rain,Freezing Rain,340,2014-01-16 16:15:00
10:35 AM,1.4,-0.4,92,29.86,0.2,NNW,31.1,42.6,N/A,Snow,Heavy Snow,340,2014-01-16 16:35:00
10:55 AM,1.4,-2.2,85,29.88,0.2,NNW,28.8,44.9,N/A,Snow,Heavy Snow,340,2014-01-16 16:55:00
11:15 AM,1.4,-0.4,92,29.88,0.2,NNW,39.1,48.3,N/A,Rain,Freezing Rain,340,2014-01-16 17:15:00
11:35 AM,1.4,-0.4,92,29.89,0.5,NNW,36.8,46.0,N/A,Rain,Freezing Rain,340,2014-01-16 17:35:00
11:55 AM,1.4,-0.4,92,29.90,0.2,North,33.4,42.6,N/A,Rain,Freezing Rain,350,2014-01-16 17:55:00
12:15 PM,1.4,-0.4,92,29.91,0.5,North,31.1,47.2,N/A,Rain,Freezing Rain,350,2014-01-16 18:15:00
12:35 PM,3.2,-0.4,85,29.91,0.5,NNW,35.7,46.0,N/A,Rain,Freezing Rain,340,2014-01-16 18:35:00
12:55 PM,3.2,-0.4,85,29.92,0.8,NNW,34.5,43.7,N/A,Rain,Freezing Rain,340,2014-01-16 18:55:00
1:15 PM,3.2,-0.4,85,29.93,1.0,NNW,32.2,41.4,N/A,Rain,Freezing Rain,340,2014-01-16 19:15:00
1:35 PM,5.0,-0.4,78,29.93,0.8,NNW,34.5,42.6,N/A,Rain,Freezing Rain,340,2014-01-16 19:35:00
1:55 PM,5.0,-0.4,78,29.95,3.0,NNW,31.1,40.3,N/A,,Overcast,340,2014-01-16 19:55:00
2:55 PM,5.0,-2.2,72,29.99,5.0,North,29.9,44.9,N/A,,Haze,350,2014-01-16 20:55:00
3:15 PM,5.0,-2.2,72,30.00,8.0,North,28.8,43.7,N/A,,Clear,350,2014-01-16 21:15:00
3:35 PM,5.0,-2.2,72,30.02,9.0,North,32.2,41.4,N/A,,Clear,350,2014-01-16 21:35:00
3:55 PM,5.0,-2.2,72,30.04,10.0,NNW,28.8,35.7,N/A,,Clear,340,2014-01-16 21:55:00
4:15 PM,5.0,-2.2,72,30.05,10.0,NNW,24.2,36.8,N/A,,Clear,340,2014-01-16 22:15:00
4:35 PM,5.0,-4.0,66,30.07,10.0,NNW,25.3,35.7,N/A,,Clear,340,2014-01-16 22:35:00
4:55 PM,3.2,-4.0,72,30.08,10.0,NNW,25.3,29.9,N/A,,Clear,340,2014-01-16 22:55:00
5:15 PM,3.2,-4.0,72,30.09,10.0,NNW,25.3,31.1,N/A,,Clear,340,2014-01-16 23:15:00
5:35 PM,1.4,-4.0,78,30.10,10.0,NNW,20.7,28.8,N/A,,Clear,340,2014-01-16 23:35:00
5:55 PM,1.4,-5.8,72,30.11,10.0,NNW,21.9,27.6,N/A,,Clear,340,2014-01-16 23:55:00
6:15 PM,1.4,-5.8,72,30.12,10.0,NNW,20.7,33.4,N/A,,Clear,340,2014-01-17 00:15:00
6:35 PM,1.4,-5.8,72,30.13,10.0,NNW,21.9,29.9,N/A,,Clear,330,2014-01-17 00:35:00
6:55 PM,3.2,-7.6,61,30.14,10.0,NNW,23.0,31.1,N/A,,Clear,340,2014-01-17 00:55:00
7:15 PM,3.2,-7.6,61,30.14,10.0,NNW,23.0,29.9,N/A,,Clear,340,2014-01-17 01:15:00
7:35 PM,3.2,-7.6,61,30.15,10.0,NNW,21.9,31.1,N/A,,Clear,340,2014-01-17 01:35:00
7:55 PM,1.4,-7.6,66,30.15,10.0,NNW,21.9,-,N/A,,Clear,340,2014-01-17 01:55:00
8:15 PM,1.4,-7.6,66,30.15,10.0,NNW,20.7,28.8,N/A,,Clear,340,2014-01-17 02:15:00
8:35 PM,1.4,-7.6,66,30.15,10.0,NNW,19.6,25.3,N/A,,Clear,340,2014-01-17 02:35:00
8:55 PM,1.4,-7.6,66,30.16,10.0,NNW,18.4,25.3,N/A,,Clear,340,2014-01-17 02:55:00
9:15 PM,1.4,-7.6,66,30.16,10.0,NNW,20.7,-,N/A,,Clear,340,2014-01-17 03:15:00
9:35 PM,1.4,-7.6,66,30.16,10.0,NNW,20.7,26.5,N/A,,Clear,340,2014-01-17 03:35:00
9:55 PM,1.4,-7.6,66,30.17,10.0,NNW,21.9,27.6,N/A,,Clear,340,2014-01-17 03:55:00
10:15 PM,1.4,-7.6,66,30.17,10.0,NNW,19.6,26.5,N/A,,Clear,340,2014-01-17 04:15:00
10:35 PM,1.4,-7.6,66,30.16,10.0,NNW,21.9,26.5,N/A,,Clear,340,2014-01-17 04:35:00
10:55 PM,1.4,-7.6,66,30.16,10.0,North,18.4,24.2,N/A,,Clear,350,2014-01-17 04:55:00
11:15 PM,1.4,-7.6,66,30.16,10.0,North,17.3,23.0,N/A,,Clear,350,2014-01-17 05:15:00
11:35 PM,-0.4,-7.6,72,30.17,10.0,NNW,16.1,-,N/A,,Clear,340,2014-01-17 05:35:00
11:55 PM,-0.4,-7.6,72,30.16,10.0,NNW,16.1,-,N/A,,Clear,340,2014-01-17 05:55:00